User: anonymous   Login
Location: Terra Rouge Observatory
(46.0000°N, 62.7500°W)
Time: 17:56:23
(UTC-04:00)
Language:

NOSS 3-1 (A) - Orbit

View from above orbital plane
View from above orbital plane
View from above satellite
View from above satellite

Ground track
Ground track

The orbit data is extracted from the following two-line orbital elements,

1 26905U 01040A   17342.76647569 0.00000000  00000-0  00000-0 0    07
2 26905  63.4110 307.8277 0385000 358.9031   1.0969 13.40755357    03
Epoch (UTC): 08 December 2017 18:23:43
Eccentricity: 0.0385000
inclination: 63.4110°
perigee height: 818 km
apogee height: 1394 km
right ascension of ascending node: 307.8277°
argument of perigee: 358.9031°
revolutions per day: 13.40755357
mean anomaly at epoch: 1.0969°
orbit number at epoch: 0

The dashed part of the orbit path shows where the satellite is in the earth's shadow,  

DLR